Theta_e
312 312 311 311 311 311 311 310 310 308 307 305 301 297 294 291 293 303 304 306 302 293 283 287 288 286 291 295 296 295 295 294 296 295 296 294 296 292 293 294 291 293 292 293 291 293 288 291 289 292 294 294 296 297 299 299 298 294 290 292 292 306 284 282 283 284 285 289 290 291 293 291 289 289 288 287 285 282 282 278 278 278 279 278 274 273 275
311 311 311 311 311 311 310 310 310 308 307 304 301 292 290 290 290 297 304 306 301 294 284 286 285 289 292 292 292 294 294 294 292 292 295 294 294 292 292 294 296 293 296 294 291 296 285 294 294 292 297 295 300 299 299 300 297 297 296 290 295 285 285 283 278 277 281 282 283 287 289 289 284 285 285 289 289 288 284 284 283 280 280 280 275 274 271
311 311 311 311 310 310 310 310 310 309 308 307 297 293 292 291 293 293 297 303 301 291 288 287 281 286 287 287 289 290 292 295 295 294 294 298 294 292 292 295 295 294 296 294 295 296 292 287 294 295 296 296 303 301 300 301 300 301 305 304 299 288 285 283 277 275 272 272 270 275 280 285 283 285 286 289 289 286 286 281 279 277 277 281 275 272 279
311 311 311 311 310 310 310 309 309 308 307 307 295 294 295 291 286 290 293 295 295 293 292 290 288 283 287 282 287 290 288 292 295 296 295 297 296 293 295 294 296 293 291 289 291 291 296 292 292 294 293 297 300 300 299 301 300 304 304 305 301 290 287 285 283 279 279 282 283 287 288 285 282 283 286 286 289 290 286 281 277 278 276 278 279 280 283
311 311 311 310 310 310 310 309 309 308 307 306 299 293 294 290 288 285 286 292 292 289 289 290 289 287 290 285 289 287 287 289 292 296 292 296 294 293 293 294 290 289 289 287 288 291 292 295 293 294 294 297 299 300 299 302 303 304 302 303 294 287 283 285 283 283 285 286 286 288 290 286 285 285 285 286 287 289 288 283 280 282 281 280 284 283 282
311 311 310 310 310 310 310 310 309 309 308 306 299 293 292 286 289 290 292 289 285 283 284 291 289 290 290 286 289 287 287 287 286 292 295 295 294 290 290 290 292 292 290 289 285 286 288 289 286 293 295 294 296 295 299 297 302 303 302 304 297 289 284 288 286 285 287 287 287 289 288 288 287 287 285 285 287 286 285 283 286 283 281 281 283 284 283
310 310 310 310 310 310 310 310 310 309 307 304 296 292 292 291 290 292 294 286 285 286 291 292 290 287 289 287 289 287 287 287 290 290 291 290 291 292 284 287 290 291 291 291 285 286 284 281 289 291 290 292 292 291 295 300 301 298 297 297 296 291 286 289 286 285 287 289 289 289 287 287 288 287 287 287 287 287 287 287 287 286 285 286 287 286 285
310 310 310 310 310 310 310 310 310 308 307 300 295 294 291 290 289 287 289 288 288 287 288 288 286 286 292 285 289 288 287 288 291 292 290 284 287 293 289 289 291 292 293 292 288 290 290 289 286 291 292 292 293 292 292 293 300 299 294 295 297 292 285 292 288 286 287 289 290 290 288 286 285 286 287 288 288 288 288 287 286 286 285 286 286 285 285
310 310 310 310 310 310 310 311 310 309 307 299 296 295 295 294 293 293 287 284 285 290 285 286 284 281 286 285 289 288 288 289 290 290 293 290 290 291 290 292 293 293 294 294 294 297 296 295 294 294 293 289 294 291 291 296 291 293 293 294 293 292 283 288 287 285 284 288 289 289 288 287 284 285 287 287 286 284 285 283 286 285 284 283 283 282 283
309 310 310 310 310 310 310 310 310 309 306 299 294 294 295 294 295 291 287 283 290 286 285 283 284 283 286 290 289 288 289 290 291 284 293 296 295 294 294 293 292 290 290 291 294 298 298 298 298 298 297 298 297 298 297 297 294 289 290 293 290 289 285 284 282 282 282 288 289 288 288 286 284 285 288 289 288 288 285 286 288 288 286 282 277 282 286
309 309 309 310 310 310 310 310 310 309 306 298 293 294 295 294 293 290 285 285 284 283 284 283 283 289 288 290 289 290 289 289 291 286 284 293 293 296 295 292 289 288 289 293 299 301 301 301 301 300 298 297 296 296 297 297 297 295 292 290 288 290 289 286 286 283 282 287 286 287 284 279 280 286 289 287 285 284 284 285 287 288 289 286 287 289 287
309 309 309 309 310 310 310 310 310 310 307 301 298 297 298 294 291 285 280 282 282 284 286 284 284 287 288 289 290 289 289 288 290 292 287 288 291 293 293 291 292 283 293 298 299 300 300 301 299 298 296 295 295 295 295 293 295 296 296 292 288 288 288 286 288 284 283 285 285 282 277 279 289 290 289 289 290 287 288 288 289 288 287 288 288 289 288
309 309 309 309 309 310 310 310 310 310 308 307 305 301 303 299 294 290 284 283 283 283 284 283 286 288 289 288 287 287 289 289 290 291 290 289 289 291 292 292 290 293 297 296 298 297 292 290 290 290 290 291 291 292 292 292 293 295 294 295 291 287 287 285 285 286 285 283 282 275 278 286 289 290 292 293 290 287 287 285 286 287 288 289 287 289 289
309 309 309 309 309 309 310 310 310 310 309 308 304 302 304 303 297 293 291 286 286 289 290 288 285 287 287 287 286 288 287 289 287 289 289 290 290 290 292 295 297 298 297 297 294 293 288 284 284 283 286 287 284 285 288 291 292 292 293 294 295 292 290 287 284 288 282 283 282 282 286 287 286 287 290 289 287 286 286 280 282 286 285 287 286 287 288
309 309 309 309 309 309 309 309 309 309 309 308 304 302 303 302 301 297 295 291 287 288 287 283 282 285 287 287 287 286 284 283 286 287 290 291 291 292 294 297 298 297 297 294 290 290 288 287 284 283 283 280 275 280 290 289 295 296 297 297 296 295 289 289 285 284 286 284 281 281 280 278 282 287 291 294 294 294 291 287 284 288 288 288 289 288 287
308 308 308 309 309 309 309 309 309 309 309 309 305 303 303 301 298 294 290 287 286 285 286 290 288 287 287 286 287 288 284 282 284 285 285 285 288 292 296 297 298 298 298 295 291 289 286 285 283 283 282 283 286 283 281 288 288 295 297 297 297 296 295 291 286 284 284 283 280 280 278 282 286 288 294 296 295 294 290 287 283 288 287 288 289 288 288
308 308 308 308 309 309 309 309 309 309 309 308 305 304 303 304 299 294 292 291 289 286 289 291 291 288 286 285 287 287 286 285 287 286 283 285 288 290 294 298 298 299 297 293 291 289 286 286 287 285 286 289 284 282 284 282 283 286 291 293 292 290 287 287 285 284 284 284 282 280 284 283 287 291 293 294 293 292 289 278 274 285 289 290 289 289 289
308 308 308 308 308 308 309 309 309 309 309 309 306 303 303 304 299 297 293 292 288 288 289 292 292 287 286 284 286 288 289 288 288 288 286 286 287 288 292 294 292 296 299 289 290 287 286 285 283 284 283 290 289 285 275 281 281 281 284 285 284 285 286 286 284 285 285 284 284 284 285 288 290 293 295 295 296 292 280 275 281 289 292 293 293 294 293
307 307 307 307 307 308 308 309 309 309 309 308 307 306 304 305 304 299 293 290 289 287 290 293 295 291 292 294 290 290 291 291 288 287 282 285 288 291 294 295 295 286 292 286 288 285 285 285 288 286 284 285 288 281 283 282 280 285 286 284 285 285 285 285 285 284 284 284 282 283 285 290 293 293 295 295 291 282 281 289 294 296 296 296 295 294 295
307 307 307 307 307 308 308 309 309 309 309 309 307 303 304 306 305 304 299 293 291 290 292 293 295 293 294 294 289 289 289 290 290 288 285 284 291 295 290 288 291 291 287 291 285 287 285 284 285 288 285 285 287 291 286 286 290 286 286 289 285 285 284 284 284 285 283 283 282 281 277 287 294 295 292 294 286 285 293 294 294 296 295 295 294 294 295
307 307 307 307 307 308 308 309 309 309 309 309 308 304 303 306 305 304 303 299 294 289 291 294 296 295 295 294 295 296 293 291 288 290 289 288 292 290 284 284 288 291 287 289 284 285 287 285 288 287 290 289 289 288 284 285 287 291 291 286 286 290 283 282 281 284 281 281 279 279 284 289 294 292 286 289 292 294 294 294 292 294 294 293 293 294 295
306 306 307 307 307 308 308 308 309 309 309 309 308 305 301 305 304 305 305 304 297 291 292 294 297 297 299 300 300 299 299 298 298 298 294 288 290 291 288 293 294 294 295 296 290 288 291 289 290 286 285 287 289 285 288 284 282 287 290 287 282 290 286 288 284 289 286 284 287 289 290 295 296 296 294 292 295 295 295 295 295 294 293 293 294 295 296
305 305 306 306 307 307 307 308 308 308 308 309 308 304 301 303 304 308 305 299 301 301 299 298 298 299 301 301 303 303 303 304 302 299 298 293 285 287 292 292 293 299 298 298 291 290 290 290 286 290 287 288 286 285 287 286 284 286 285 290 288 291 292 292 289 287 288 291 293 295 294 294 295 297 298 297 296 297 296 295 294 294 295 294 295 295 296
304 304 305 305 306 306 307 307 308 307 308 308 308 304 303 304 305 304 302 300 297 290 294 293 290 287 291 295 299 301 301 300 301 302 302 299 288 284 288 294 299 299 296 298 300 293 290 291 291 292 286 290 291 285 283 282 284 286 285 285 285 289 291 290 287 286 285 282 285 290 291 291 291 292 295 296 297 297 296 295 295 295 295 295 295 295 296
304 304 304 305 305 306 306 307 307 307 307 307 308 308 307 304 306 304 299 291 289 289 288 288 288 297 299 300 300 299 300 301 302 301 301 301 298 292 291 296 301 297 295 298 299 294 288 289 290 289 284 292 292 285 290 285 285 288 284 285 285 286 293 289 289 288 286 287 291 292 291 291 292 292 291 293 293 293 292 294 295 296 296 296 297 297 296
304 304 304 304 304 305 306 306 307 307 307 307 308 305 303 303 305 306 303 301 297 294 288 287 293 299 298 298 298 300 302 301 300 300 300 300 301 300 299 301 300 302 300 300 299 292 288 288 288 289 287 287 295 287 286 289 288 289 287 287 290 291 294 286 288 286 289 291 291 292 292 292 291 290 290 291 291 292 293 294 294 294 294 295 296 296 297
304 304 304 304 304 305 305 306 307 306 306 307 307 306 305 305 307 305 301 300 295 288 289 288 293 295 296 296 301 302 302 301 300 300 299 300 300 300 299 298 298 298 298 296 295 289 289 289 287 288 290 289 294 291 291 289 289 286 285 289 292 290 286 291 289 285 284 284 287 288 285 285 289 292 293 293 293 292 293 293 293 294 294 294 294 295 296
304 304 304 304 305 305 305 306 307 306 306 307 306 306 307 305 306 307 307 304 298 289 288 288 289 293 299 297 300 300 300 301 299 298 297 298 299 299 299 298 297 296 295 293 288 289 288 287 287 289 291 292 290 287 291 291 291 288 287 289 292 288 289 288 285 282 284 289 291 291 291 290 291 292 294 294 293 292 292 293 294 295 296 296 295 294 295
305 305 305 305 305 305 306 307 307 306 306 306 305 305 304 306 307 308 307 308 304 298 292 292 295 292 289 293 298 298 299 299 297 296 295 296 297 298 298 298 297 297 296 291 288 288 287 288 289 289 290 294 292 287 289 284 285 284 288 292 292 292 293 291 292 291 292 294 294 294 291 290 292 293 293 293 294 293 293 295 295 295 296 296 296 295 295
305 305 305 305 305 305 306 307 307 306 306 305 303 299 293 294 304 306 308 307 305 301 291 288 286 288 294 294 293 295 296 297 296 295 294 293 294 296 297 297 297 298 296 290 289 288 288 288 287 292 296 298 291 287 285 286 285 287 292 292 293 294 294 295 296 293 292 295 293 292 292 292 293 293 293 294 295 296 294 294 295 295 295 296 296 296 297
305 305 305 305 305 306 307 307 307 307 306 304 301 290 290 287 294 305 306 307 307 301 289 289 288 291 290 293 292 293 294 295 293 293 294 294 294 295 297 298 297 298 291 291 290 290 288 288 288 290 292 295 293 287 286 285 284 286 291 293 294 293 294 294 295 295 295 295 295 295 293 293 294 293 293 294 294 294 294 295 297 300 299 299 298 297 297
305 305 306 305 305 306 306 307 307 306 305 302 298 293 292 295 301 304 306 307 306 298 290 288 287 287 286 288 290 292 294 295 295 292 290 292 292 293 294 298 293 298 294 290 289 289 288 288 289 289 289 294 294 288 289 287 285 287 293 293 293 294 294 293 293 293 293 294 292 291 291 293 294 292 292 295 295 294 293 294 295 295 298 298 297 298 299
304 306 306 306 306 306 306 307 307 306 304 306 307 307 307 307 306 306 307 306 302 294 293 289 286 286 285 289 293 293 293 292 289 290 290 290 291 292 290 294 293 294 301 293 289 288 290 288 288 289 293 296 289 286 287 285 288 292 293 295 295 296 295 295 294 294 294 295 294 290 290 292 293 295 295 294 294 294 295 295 297 297 297 297 297 298 299
304 306 306 306 306 307 306 307 307 306 306 304 300 301 305 307 306 307 307 304 297 294 288 288 286 285 286 291 289 292 295 290 288 287 286 288 291 291 287 290 292 290 293 292 290 290 290 290 288 288 291 289 290 286 285 289 293 293 294 294 294 294 293 293 293 293 294 294 294 294 294 295 296 295 294 294 294 295 297 297 298 297 298 298 298 299 299
305 306 306 306 306 307 307 306 304 303 299 300 301 303 304 307 307 308 306 300 292 289 289 289 287 285 285 286 285 288 293 290 287 285 286 286 291 289 289 288 290 288 286 297 289 288 287 288 290 286 286 290 287 285 287 290 292 293 292 292 293 293 291 290 291 292 293 292 292 293 295 295 294 292 292 293 294 295 296 296 297 296 295 296 298 299 300
305 306 306 307 307 307 305 305 303 301 299 298 299 306 307 307 308 307 306 305 299 289 287 287 287 285 286 283 284 287 293 288 287 287 287 285 290 290 288 288 287 290 295 292 287 289 288 292 289 285 288 286 285 287 289 291 291 291 292 291 293 293 292 292 292 293 294 294 293 294 295 295 293 292 292 293 294 295 296 296 297 297 296 297 298 299 299
306 306 307 307 306 302 297 295 301 301 300 304 306 308 308 308 306 305 302 301 302 300 291 286 286 286 288 286 288 286 289 283 284 283 283 288 284 282 286 287 286 286 286 287 286 286 290 294 288 285 285 284 287 291 291 292 292 291 292 293 294 294 293 293 293 292 292 293 293 293 294 293 293 293 293 293 294 295 294 295 296 296 297 297 299 298 299
306 307 304 300 294 285 288 291 300 304 307 307 306 299 297 298 289 289 291 292 292 298 291 292 287 290 292 290 285 291 288 283 284 284 281 283 285 285 286 287 285 286 284 285 288 294 288 288 286 286 287 290 291 292 293 293 294 294 294 294 293 294 295 295 294 293 290 290 290 292 293 292 292 293 293 293 294 294 295 295 296 298 299 299 300 300 300
305 303 302 299 291 288 287 295 306 307 305 304 301 291 289 287 286 287 287 288 288 287 288 290 287 291 289 288 290 295 291 286 284 283 283 286 285 283 287 284 287 287 285 285 286 295 284 282 280 280 283 285 284 289 291 293 293 293 294 294 294 295 295 294 294 292 292 291 292 293 292 291 290 292 293 293 294 294 294 295 296 297 299 300 300 300 300
302 297 291 290 289 291 301 305 307 304 299 291 289 288 285 288 285 283 287 284 286 287 288 284 289 288 289 288 286 286 292 287 282 282 284 284 290 284 285 285 285 285 283 283 285 291 282 278 277 277 281 284 286 288 287 289 289 291 291 292 292 293 293 293 294 293 293 294 294 294 293 293 292 294 294 294 294 293 294 294 295 296 298 300 300 301 301
297 296 294 289 296 300 301 304 301 296 290 288 287 288 285 284 288 286 285 283 282 283 286 283 281 282 282 287 288 286 291 292 289 288 286 285 289 288 285 284 289 284 283 283 286 285 284 281 278 277 281 284 287 289 288 289 289 291 292 292 292 292 293 294 295 295 293 293 294 294 294 294 294 295 296 296 295 294 294 295 295 296 296 297 298 298 300
295 296 297 300 300 300 296 292 288 287 288 286 282 282 285 284 286 285 285 280 280 279 280 283 282 281 282 287 287 286 285 289 287 287 288 284 287 287 285 285 286 283 280 285 286 283 283 280 277 277 282 286 289 288 288 289 291 290 291 291 291 292 294 295 295 296 295 294 295 294 295 294 295 297 298 296 295 295 295 295 296 296 296 297 297 298 299
300 298 298 294 292 290 289 287 288 286 284 284 284 280 283 278 281 281 281 283 281 282 280 286 285 286 285 289 286 287 285 288 288 285 286 285 289 288 285 285 284 281 283 286 284 282 279 278 275 281 286 287 287 288 289 290 290 290 291 291 291 292 294 295 294 295 295 295 295 295 295 296 297 299 298 297 296 295 295 294 294 295 296 296 297 297 297
297 297 292 285 285 284 284 279 286 283 283 283 281 278 281 279 278 276 274 277 279 282 282 286 284 284 283 284 283 282 285 291 289 286 287 288 286 284 284 282 283 286 287 284 282 280 280 278 283 287 288 287 289 288 289 289 290 290 291 293 293 293 294 295 295 296 296 295 294 293 293 294 295 297 298 297 295 294 294 294 294 293 293 293 294 294 295
291 288 286 283 282 284 281 276 282 278 275 278 282 278 277 274 275 279 278 280 283 284 283 284 284 286 285 287 287 285 286 284 288 287 284 286 283 284 282 281 283 283 282 280 280 280 279 280 286 287 287 287 288 288 288 289 290 290 291 292 293 293 294 296 297 296 294 294 296 296 295 295 295 295 296 297 296 295 293 294 294 293 293 293 293 293 295
288 287 283 279 276 282 279 274 278 278 281 279 278 280 279 279 280 280 284 284 282 283 285 286 285 285 283 284 285 283 283 283 284 285 286 285 282 282 285 285 284 282 282 282 280 278 279 283 286 288 289 288 287 288 289 290 291 291 289 290 291 292 293 294 296 297 296 295 295 294 294 295 295 295 296 297 297 296 296 296 295 294 293 292 293 293 294
287 288 285 284 278 280 282 276 277 280 282 280 281 280 282 283 282 283 284 284 284 285 286 285 285 285 283 281 285 284 283 283 284 286 286 282 282 284 285 283 281 282 278 277 278 279 280 284 287 289 289 287 287 288 289 290 291 291 291 291 291 292 293 294 295 295 295 294 293 294 294 294 294 295 295 296 297 298 298 297 297 296 294 293 293 293 293
282 285 283 276 275 279 278 279 280 280 281 282 280 281 283 283 283 283 286 285 287 285 284 284 285 283 284 283 285 281 281 284 283 284 284 282 284 282 282 282 281 282 279 277 279 282 283 287 289 289 289 287 287 288 289 290 290 290 290 291 291 292 293 294 294 294 293 293 293 294 294 294 294 294 294 294 294 295 295 294 294 294 293 292 292 292 292
284 283 282 280 279 277 277 280 281 282 281 281 281 281 282 283 283 285 286 284 285 285 285 286 282 281 281 282 283 284 283 285 280 281 284 283 281 279 280 278 280 278 281 283 283 284 287 290 291 290 289 288 289 289 289 290 290 289 290 291 292 293 294 294 294 295 295 294 294 294 294 294 294 294 295 294 293 294 295 293 292 292 292 292 292 292 292
280 280 283 283 280 279 280 280 281 280 280 280 281 281 281 281 281 284 285 284 286 284 283 285 284 281 280 279 278 281 282 284 281 283 282 281 282 283 281 278 280 279 280 283 284 285 289 291 290 289 289 289 289 290 290 291 290 291 291 292 294 294 294 295 295 296 295 295 295 295 295 294 294 293 293 294 294 294 293 292 292 292 292 291 290 291 291
283 281 280 281 281 279 278 274 273 272 275 278 280 280 280 281 281 282 283 286 284 281 278 278 277 280 280 280 280 275 279 283 282 282 282 279 280 280 280 279 280 283 285 286 289 291 291 291 289 289 289 289 290 291 292 291 291 291 291 292 293 294 294 295 295 295 295 295 295 292 294 294 294 293 293 290 291 291 291 292 292 292 291 291 290 290 291
281 282 282 282 283 284 283 282 280 281 282 282 282 282 282 282 282 285 286 286 284 281 277 276 279 280 279 277 281 283 283 281 281 282 280 282 282 278 278 281 285 286 287 286 288 289 289 289 289 289 290 290 290 291 291 291 291 291 291 292 292 292 293 294 295 295 294 294 294 293 293 293 293 291 289 288 288 289 290 291 292 292 291 291 292 292 291
Wind_Speed
13 13 12 12 12 12 13 14 14 14 17 7 7 2 5 5 0 5 7 8 2 7 4 2 4 2 2 4 1 2 1 1 1 1 3 2 1 1 2 0 1 0 0 1 1 0 2 1 1 1 2 1 3 3 9 9 4 1 1 1 0 2 1 0 4 5 5 4 3 1 1 4 3 1 1 1 1 3 5 4 4 4 1 1 1 1 5
13 13 12 12 12 12 12 13 13 12 12 5 5 4 2 1 2 6 6 8 5 10 3 3 6 2 5 3 2 2 0 1 3 2 2 1 2 1 0 1 0 1 0 0 1 1 2 1 2 2 2 1 3 9 9 11 6 5 3 2 3 1 1 3 1 3 5 4 4 1 2 3 1 0 2 0 2 4 2 4 1 0 6 6 5 7 3
13 12 12 11 11 11 12 12 12 11 10 7 1 2 1 1 1 2 8 10 8 6 1 1 0 2 3 3 5 6 2 1 0 0 1 1 1 0 0 0 0 0 0 1 1 1 1 2 2 1 1 2 1 0 5 5 3 4 3 3 3 1 2 2 2 3 3 2 1 2 2 4 2 1 2 1 2 4 1 1 1 3 2 4 3 4 7
12 12 11 11 11 11 12 12 12 10 9 9 3 1 2 3 1 5 5 6 6 4 1 4 1 1 4 3 2 0 3 3 4 3 1 1 0 1 1 1 1 0 2 2 1 1 1 2 2 2 2 1 1 1 5 3 3 0 5 4 3 1 0 3 5 6 7 6 3 2 1 2 3 3 0 3 1 0 2 4 3 5 3 4 6 4 4
12 12 11 11 10 11 12 12 12 11 9 6 2 2 2 0 4 1 5 5 6 2 3 3 3 2 1 0 1 3 2 3 2 3 1 3 1 1 2 0 1 1 2 1 2 2 2 1 2 2 1 1 2 7 6 3 4 1 5 3 2 1 1 4 4 6 8 4 5 3 4 5 4 4 6 3 3 3 4 5 6 4 2 9 2 5 4
11 12 11 10 10 10 12 13 13 12 11 6 0 2 3 3 1 2 1 1 2 3 3 5 1 1 1 1 0 2 4 5 3 5 2 0 2 2 2 5 3 1 1 0 1 2 2 1 2 1 1 2 3 6 2 2 3 1 0 1 1 1 2 2 2 5 5 5 6 2 2 4 4 5 5 7 6 3 6 5 7 4 4 10 3 4 5
10 11 11 10 10 10 11 12 13 14 13 4 3 2 2 3 1 0 1 0 2 2 1 1 0 2 1 1 3 3 4 3 1 1 4 3 2 3 1 3 4 4 3 0 2 0 2 3 1 0 2 1 3 3 4 1 4 3 2 2 1 1 4 4 4 3 3 4 3 2 5 3 3 5 6 8 7 7 7 8 6 8 7 8 9 7 10
9 9 10 10 10 10 10 11 12 13 16 3 3 2 1 2 1 1 4 2 1 2 1 1 2 4 3 2 3 1 2 3 5 2 1 2 2 2 2 4 6 5 4 1 2 2 2 3 4 1 1 3 0 2 4 3 1 2 1 2 1 1 3 0 1 1 4 4 5 2 2 3 5 6 6 8 8 7 7 4 5 4 6 8 9 9 11
8 8 9 10 10 10 10 11 10 12 11 5 4 1 1 0 0 0 1 1 2 0 2 1 2 2 3 3 1 2 1 1 0 3 1 2 0 1 2 3 5 2 3 3 5 3 5 6 7 5 3 6 1 1 3 1 4 4 3 1 1 1 3 1 1 2 4 3 2 2 1 3 5 10 10 9 7 8 5 4 6 5 8 5 2 3 7
7 7 8 9 9 9 10 10 10 10 7 3 1 2 1 1 0 2 1 0 3 1 0 1 2 1 1 1 0 1 0 2 1 1 0 1 3 2 1 3 3 4 3 5 3 5 6 7 9 8 7 7 8 8 10 8 7 2 3 1 2 2 1 2 0 3 4 4 0 1 1 3 9 11 13 14 12 9 2 3 4 8 4 3 4 8 6
6 6 7 8 8 9 9 9 8 10 6 3 1 0 1 1 1 3 3 1 2 1 0 2 2 1 0 1 0 0 1 1 1 1 2 2 2 2 2 4 3 4 4 2 4 5 8 9 10 8 8 9 11 10 10 12 10 9 4 1 2 3 5 5 2 3 1 0 1 0 2 7 6 3 3 5 3 5 5 5 6 6 6 6 6 7 2
6 5 6 7 8 8 9 9 8 7 4 1 1 1 0 2 3 3 3 2 2 2 1 2 2 0 0 0 1 1 1 1 0 2 2 2 4 2 2 3 0 4 2 3 6 7 9 8 5 5 8 11 12 12 11 12 12 9 8 7 5 3 4 4 2 2 3 1 1 3 8 9 2 2 2 3 1 3 6 8 7 5 4 5 7 8 7
4 5 5 7 8 8 8 7 7 5 3 3 1 0 0 1 1 1 2 2 2 1 2 2 1 1 3 2 2 3 5 4 2 3 2 2 2 2 1 1 1 4 3 7 7 6 4 7 7 7 10 6 6 6 8 10 13 11 7 9 7 5 6 1 2 3 0 1 4 3 3 2 5 7 5 2 2 1 1 5 5 6 7 7 5 9 5
4 4 5 6 7 7 7 6 6 4 3 3 2 1 1 1 1 2 1 2 4 1 2 5 3 2 0 3 2 3 2 2 3 1 1 2 3 3 4 2 3 4 3 2 3 1 3 3 4 6 5 2 2 1 3 5 8 6 8 9 9 10 4 4 5 3 5 2 6 8 4 9 5 4 1 0 1 1 0 2 3 1 1 5 2 5 4
4 4 4 5 7 7 5 5 4 3 0 1 1 2 1 1 1 0 1 3 2 2 1 1 1 2 1 2 1 1 2 3 4 2 2 2 1 4 3 3 4 4 1 1 1 1 0 1 2 4 4 4 3 3 3 1 1 1 1 4 8 6 7 3 5 3 5 5 3 2 1 4 4 3 2 2 2 1 1 2 6 4 2 3 2 3 2
5 4 5 6 6 7 6 4 3 2 2 3 1 1 2 1 2 3 3 3 3 3 2 7 1 1 1 1 1 1 2 1 1 3 6 3 3 6 4 3 4 0 0 1 1 0 1 1 2 2 2 2 1 1 2 3 2 2 2 1 3 5 7 5 8 2 1 4 5 2 3 3 2 1 1 3 2 2 2 2 5 3 3 3 2 1 1
4 5 6 6 6 7 6 5 3 2 3 6 2 1 1 1 2 1 2 2 3 5 2 1 1 2 2 3 1 1 1 1 2 2 4 4 2 3 6 5 2 1 0 1 0 0 0 1 2 3 3 3 1 2 3 1 2 4 3 2 5 4 3 4 3 5 4 2 3 4 2 4 1 5 4 5 2 2 2 1 4 2 4 1 1 1 1
5 4 5 6 7 7 6 6 5 3 3 7 3 2 1 0 3 3 4 3 2 4 4 4 2 0 0 2 1 2 0 1 1 0 1 3 2 2 3 3 5 3 0 1 0 1 1 1 2 2 3 1 0 1 2 1 2 2 2 2 2 1 0 4 6 4 4 5 4 1 4 3 6 6 5 2 2 1 3 5 1 2 2 2 2 2 2
5 5 6 6 8 8 7 6 5 4 3 6 3 1 3 3 3 3 5 3 2 2 3 1 3 2 1 1 1 1 1 1 1 0 3 5 1 1 3 2 0 2 3 1 0 1 1 3 0 1 2 3 1 1 2 1 2 1 1 3 2 1 0 1 0 3 4 3 4 4 3 3 1 1 0 1 1 3 4 3 3 2 4 3 2 4 4
5 5 5 6 7 7 7 7 6 5 4 6 5 2 1 1 3 5 4 2 2 3 4 2 1 4 1 1 3 2 2 2 0 1 1 3 2 5 5 1 2 0 3 0 1 1 0 2 1 1 2 1 2 0 2 4 0 1 2 1 2 2 1 2 2 1 1 0 3 2 2 1 1 3 1 2 1 3 2 3 3 4 4 4 4 4 6
5 6 6 6 6 6 6 6 6 5 4 6 6 2 2 0 3 2 1 3 2 2 6 1 0 3 2 4 6 4 3 6 2 1 3 2 2 2 2 1 1 1 1 0 0 2 1 3 1 2 1 1 3 3 2 2 4 3 3 2 3 1 1 2 2 2 2 2 2 2 2 0 1 2 1 3 4 3 3 2 3 4 3 3 3 4 3
6 6 6 7 6 6 5 5 4 4 4 5 7 1 1 1 1 2 3 3 3 4 5 3 2 4 8 8 7 8 8 9 8 4 6 5 1 4 3 1 1 1 1 0 1 1 1 1 1 1 2 2 1 4 0 4 3 1 0 2 5 1 1 0 2 1 1 2 3 5 4 2 2 3 4 3 5 3 3 4 4 5 5 3 1 5 5
6 6 6 7 7 6 5 5 5 4 3 2 5 2 3 0 1 1 4 2 2 3 2 4 3 6 5 7 10 11 11 9 7 4 5 4 4 1 4 4 4 1 1 1 3 2 3 1 4 2 3 4 3 3 2 5 3 0 3 2 4 2 3 2 1 6 3 5 11 11 9 4 5 5 4 4 4 5 4 5 5 4 6 4 4 5 6
7 7 7 7 8 8 7 6 5 4 3 3 4 3 3 1 1 1 1 1 1 3 5 1 2 4 1 4 3 1 2 3 7 9 5 6 4 3 2 2 1 1 2 3 2 2 2 1 3 1 4 2 2 4 4 4 4 2 1 3 2 2 1 0 3 2 5 5 5 1 3 2 2 5 6 5 6 7 5 4 4 6 5 5 5 6 7
6 6 7 7 7 7 7 6 4 4 4 3 3 3 1 1 1 2 3 1 0 2 2 4 4 8 5 4 4 3 5 4 3 5 6 7 9 7 5 4 5 5 6 4 1 3 1 2 2 1 4 1 1 5 2 3 4 3 5 3 1 4 2 4 5 6 6 8 8 10 6 5 6 7 7 10 9 6 4 4 5 5 5 5 8 6 7
7 7 7 7 7 8 8 6 6 5 4 4 3 3 2 3 1 2 1 1 2 1 2 3 5 1 1 4 3 1 1 4 5 6 8 10 11 11 10 2 2 1 1 1 3 3 2 2 2 2 3 4 3 3 4 5 5 2 5 8 4 3 2 5 1 3 6 8 12 13 10 9 8 6 4 6 6 6 7 7 6 5 6 8 9 6 9
7 7 7 7 7 8 8 7 5 5 4 4 3 2 2 2 3 5 3 3 1 2 1 4 5 5 3 8 7 4 4 4 4 5 5 7 9 8 7 6 6 1 3 0 1 1 1 2 2 4 4 3 1 3 2 5 4 5 6 3 3 2 8 8 4 7 8 8 10 3 6 8 8 7 7 6 6 4 6 7 8 8 8 8 9 10 8
6 7 7 7 7 7 7 7 5 5 5 4 3 2 2 3 3 5 3 2 2 3 2 4 5 6 5 9 3 1 3 3 4 5 5 6 7 7 8 9 6 4 3 3 2 1 2 2 5 2 1 3 2 5 3 3 3 5 8 7 6 7 8 3 5 4 8 10 9 5 7 9 10 11 10 8 6 4 6 9 11 12 10 9 8 9 10
5 6 6 6 6 6 6 6 5 5 4 3 2 2 2 5 5 5 6 5 3 2 2 4 4 2 3 4 2 5 4 2 4 4 4 4 4 5 7 8 8 6 2 2 2 2 2 4 1 3 3 4 3 4 0 4 3 9 10 5 8 9 7 9 11 9 11 12 12 10 4 8 10 9 7 8 6 6 9 11 12 11 11 10 8 8 9
6 5 5 5 5 5 5 4 4 3 2 2 1 0 1 2 2 4 4 5 3 1 0 1 3 4 2 3 5 1 2 2 3 3 4 4 4 5 6 6 6 5 4 4 4 3 3 2 2 3 2 3 3 1 2 2 5 9 7 5 7 7 8 10 10 9 10 9 5 4 6 9 9 9 9 9 9 8 9 11 12 11 11 8 8 9 7
6 5 4 4 5 4 4 3 3 3 4 1 0 0 1 1 1 0 3 4 4 2 1 1 5 4 5 2 1 5 4 3 3 4 5 6 7 6 4 4 2 6 4 1 1 4 2 2 1 3 1 4 3 2 4 3 5 7 0 2 6 7 8 10 9 8 10 10 11 9 5 9 9 7 10 11 12 9 7 7 10 10 10 9 9 9 9
6 6 3 3 4 3 2 2 3 3 3 3 3 1 2 0 1 1 3 3 5 2 1 1 3 1 2 3 3 2 3 5 1 1 1 1 2 1 2 7 4 5 4 3 2 0 3 4 3 4 3 4 3 2 1 5 9 14 4 3 3 5 4 6 5 8 8 9 5 8 11 13 10 9 10 9 9 6 6 9 10 9 9 8 9 9 9
5 4 2 3 2 2 2 1 2 3 1 2 6 6 7 7 4 2 2 4 2 1 1 1 3 1 1 4 4 4 1 3 2 3 3 1 2 1 0 0 2 1 1 2 2 3 2 3 1 3 4 5 2 2 3 8 13 11 11 12 10 9 9 7 7 8 9 7 6 8 11 12 12 10 9 9 8 9 10 11 11 7 7 6 9 9 8
4 3 3 3 3 3 3 1 2 2 1 1 2 3 3 4 3 5 4 1 2 0 1 1 1 1 4 2 4 4 1 2 5 0 4 2 1 1 1 1 1 2 3 5 2 1 1 2 4 3 1 2 2 1 5 12 10 9 10 9 9 8 7 7 8 10 10 9 7 10 13 13 12 10 9 10 13 12 9 8 8 9 9 7 8 8 7
4 4 4 4 4 3 5 5 2 1 1 0 2 3 1 3 7 8 8 2 2 0 0 1 1 1 3 1 1 5 1 1 5 1 1 4 0 2 1 1 0 2 3 1 0 3 2 4 4 2 5 1 2 5 7 12 15 12 8 9 11 8 7 8 9 7 7 5 5 7 9 9 10 10 11 11 11 10 10 10 7 5 7 7 7 7 5
4 5 5 5 5 4 2 1 1 1 0 1 2 2 2 1 4 3 2 1 0 2 0 1 1 2 1 4 5 3 1 3 2 1 2 1 3 1 1 2 1 4 1 3 4 2 3 2 3 3 2 3 6 6 9 10 10 11 9 10 12 9 7 10 12 14 14 11 9 10 9 6 8 11 10 10 10 10 9 8 9 5 5 7 8 8 6
6 6 7 6 3 1 1 1 1 1 1 1 0 3 6 4 2 2 1 1 1 0 2 1 1 4 3 3 1 4 3 5 3 2 1 0 2 2 1 1 4 1 1 2 1 3 4 1 1 2 2 5 8 7 7 7 8 9 11 12 11 11 10 9 6 6 10 12 13 10 4 6 6 6 7 9 9 8 6 7 8 6 7 8 7 6 7
7 7 3 2 3 2 1 0 0 2 1 3 1 1 3 3 0 1 2 0 2 1 1 1 5 0 1 1 5 3 2 5 2 1 4 1 1 2 0 1 3 1 4 3 5 3 2 1 3 3 6 8 9 12 13 10 10 10 10 10 11 11 10 9 7 6 6 10 10 10 8 6 7 5 4 8 8 8 8 7 6 6 6 6 7 7 7
7 2 1 1 1 0 1 0 1 2 0 1 1 0 1 1 1 0 1 1 1 1 1 3 3 3 3 3 6 1 3 4 5 1 1 2 1 4 0 1 1 1 3 1 3 4 2 1 1 1 6 4 2 7 4 6 7 8 8 8 7 9 9 11 8 7 8 9 10 9 5 6 5 10 9 9 9 8 8 7 7 7 6 7 7 7 7
2 2 2 1 1 2 1 2 3 1 1 0 1 1 0 0 2 2 0 1 2 2 1 3 2 2 4 7 4 6 0 2 2 3 3 6 1 2 1 0 1 1 4 3 3 2 1 2 1 1 6 4 6 6 3 4 5 8 6 7 6 7 6 7 10 8 8 10 8 9 6 3 4 7 6 8 8 9 11 8 6 6 5 7 7 6 7
2 3 2 1 2 1 1 0 1 2 1 0 1 0 2 1 0 1 0 1 2 2 1 3 2 2 2 0 3 6 4 0 1 1 2 3 2 1 1 2 0 2 4 3 1 1 1 0 1 3 6 5 6 6 4 5 6 7 7 6 6 6 7 7 7 6 4 5 5 5 5 3 6 6 4 5 6 7 8 8 9 8 6 6 7 7 7
2 2 1 1 1 0 1 2 1 1 0 1 2 1 1 1 1 2 2 3 4 1 4 2 1 2 3 7 6 3 3 2 1 1 1 3 2 1 3 1 1 3 4 1 1 1 1 2 2 4 6 7 7 4 4 6 7 6 10 9 8 8 8 7 5 5 3 5 5 6 5 2 4 2 4 7 8 6 7 6 7 7 7 7 5 6 7
4 2 2 2 1 0 1 1 1 1 1 1 1 2 0 1 2 4 3 1 1 1 3 0 1 1 1 1 2 2 4 1 1 1 1 2 1 1 2 2 1 3 2 1 0 1 2 2 2 7 7 7 6 6 7 6 6 7 8 8 7 7 6 7 5 4 4 3 4 4 5 4 5 6 4 3 5 6 4 3 4 5 6 6 7 7 7
2 1 1 1 1 1 1 0 0 2 1 1 3 3 1 1 3 1 0 3 1 2 2 0 2 3 5 1 2 1 1 1 1 1 2 0 0 2 1 3 3 1 1 1 1 3 3 2 5 8 8 6 7 7 6 7 7 7 10 10 8 6 4 4 5 4 5 3 2 3 3 3 3 4 4 1 3 5 7 8 7 5 5 5 6 7 6
2 1 1 1 0 1 2 1 0 2 3 3 3 2 3 3 2 3 3 2 1 2 1 1 2 0 5 4 0 1 1 2 0 1 3 1 2 1 2 3 1 1 1 3 2 2 1 3 5 7 8 7 7 7 6 7 6 5 8 10 11 10 7 4 4 3 3 4 6 5 5 4 3 4 4 3 2 1 3 7 8 7 6 6 6 7 7
1 2 1 3 2 2 2 2 0 1 2 3 3 5 3 4 4 4 5 1 2 3 5 6 5 2 4 3 2 2 0 1 0 2 1 0 2 4 2 0 0 1 2 2 3 4 5 4 5 8 8 8 7 7 7 8 8 6 4 8 11 11 10 5 4 4 4 4 5 4 6 5 4 5 6 4 5 4 4 6 5 6 4 4 6 6 8
2 1 1 1 2 2 1 2 3 4 4 3 4 5 4 4 5 4 2 1 2 5 4 3 3 4 2 3 1 1 1 0 2 2 2 2 4 2 1 0 4 3 3 3 3 4 3 4 5 7 8 6 6 7 8 9 8 7 8 9 9 10 9 7 5 5 5 4 4 5 6 6 5 5 5 7 8 6 7 7 8 7 4 4 5 5 6
2 1 2 1 3 2 3 4 1 1 1 3 3 4 4 1 1 5 4 2 4 2 3 3 4 4 3 2 1 3 1 1 1 3 3 2 1 1 2 3 3 2 2 3 4 2 2 5 7 8 7 4 5 6 9 10 9 10 9 10 11 11 9 8 8 7 4 4 5 5 6 7 6 5 5 6 7 9 7 6 7 6 5 4 5 5 5
3 2 2 3 2 2 2 2 1 2 4 1 2 1 1 1 4 6 6 1 0 1 1 1 2 1 4 1 1 1 3 2 2 3 1 1 3 3 1 3 2 4 3 4 4 2 2 7 8 7 6 6 6 6 8 8 7 8 8 8 8 9 9 9 9 8 6 4 4 5 6 6 6 6 6 5 5 8 7 5 5 6 5 5 6 6 6
1 1 1 1 2 3 1 1 1 3 4 4 1 1 1 2 4 6 1 0 1 2 3 1 1 2 3 1 1 2 3 1 2 1 3 5 3 2 2 6 5 4 4 1 2 5 5 8 7 6 7 7 8 8 8 9 8 8 8 7 7 7 8 8 10 10 7 6 6 6 6 6 7 7 6 7 7 5 6 7 7 6 6 5 5 5 6
0 1 3 3 5 6 3 2 3 2 2 3 3 4 1 3 3 4 2 0 2 2 1 1 2 1 1 1 1 1 3 1 1 4 4 3 3 3 4 7 5 4 6 5 6 6 7 6 6 6 7 8 8 9 9 9 8 8 8 8 8 7 8 9 9 9 8 8 6 5 6 7 7 6 6 4 4 5 6 8 7 6 6 6 5 4 5
2 1 4 3 3 5 3 1 0 4 6 6 5 4 2 4 2 3 1 1 1 1 3 1 0 1 1 3 4 2 1 0 3 2 5 4 2 3 4 5 5 5 6 5 6 5 6 6 6 8 8 9 9 10 10 9 9 9 9 8 8 9 9 10 9 9 8 6 5 5 6 7 7 5 3 4 4 4 6 7 8 7 6 6 7 6 5
Wind_Direction
332 331 331 333 337 338 334 334 341 353 357 9 346 3 27 37 210 262 304 343 59 66 67 316 32 16 267 299 226 283 359 121 274 36 358 26 71 17 56 207 52 215 147 333 346 354 279 187 229 292 18 26 60 358 6 352 336 81 334 23 297 142 53 337 297 306 300 306 274 25 70 117 76 49 72 75 207 175 172 172 180 148 133 130 1 224 249
331 331 334 336 338 339 335 335 345 354 21 4 322 63 98 207 279 326 306 350 69 73 82 352 337 324 321 31 292 301 195 48 358 26 330 70 346 74 322 3 138 222 88 122 279 337 357 358 16 356 28 272 68 28 19 359 355 19 344 353 332 8 297 125 346 2 335 340 347 1 341 55 91 217 286 87 80 68 135 102 78 195 215 171 141 241 279
330 332 336 336 338 339 338 338 343 355 1 4 23 21 246 236 288 253 304 347 45 99 175 146 14 350 347 337 1 348 358 328 234 161 337 347 139 76 337 215 228 18 273 250 256 288 163 285 329 36 232 256 347 230 51 336 307 15 11 26 357 330 201 124 150 221 263 273 293 275 280 257 264 212 300 275 110 123 77 269 36 180 278 138 168 247 255
332 332 336 337 338 341 340 339 345 349 5 351 71 254 26 25 45 314 346 5 30 65 41 94 122 57 3 21 302 62 343 331 349 88 20 89 13 79 253 354 82 46 33 5 356 308 163 161 276 353 297 309 260 321 336 213 244 46 34 16 154 242 2 182 183 173 213 213 208 233 109 326 300 279 286 254 343 209 111 102 108 202 210 198 234 181 276
332 332 335 339 340 342 340 339 342 346 0 16 99 6 97 144 68 344 340 339 41 98 27 49 44 66 149 56 317 355 320 272 334 29 112 6 62 359 61 312 16 306 46 310 307 257 309 258 268 225 235 237 278 321 298 263 261 358 89 331 102 44 315 258 217 228 233 218 221 234 176 241 251 272 283 267 186 187 158 176 225 192 115 265 208 193 203
333 332 333 337 341 342 339 338 342 345 351 356 150 19 5 62 249 110 212 119 293 30 334 45 41 317 155 227 10 4 10 14 24 325 55 251 32 58 330 34 33 1 259 216 294 316 304 290 251 332 285 342 321 341 328 280 306 290 120 148 125 135 209 260 154 260 255 263 269 261 279 235 235 225 241 270 267 149 200 224 222 152 191 247 248 196 208
334 332 330 335 340 344 341 338 341 342 343 14 83 79 316 117 215 173 331 80 254 160 283 27 62 25 159 178 46 29 46 10 329 195 319 19 350 43 303 333 328 321 333 158 258 275 336 310 300 263 286 322 345 319 331 295 22 27 13 348 147 91 239 226 182 248 288 281 259 236 217 258 252 230 234 245 253 240 213 233 230 199 224 235 248 253 247
332 332 331 335 340 342 341 339 344 343 342 12 63 64 63 352 69 305 355 81 150 265 359 98 65 77 337 84 336 117 34 2 340 342 72 330 323 359 65 314 319 316 322 265 239 256 251 274 291 312 336 323 190 251 222 277 343 30 340 329 357 136 276 173 205 352 285 265 267 260 217 207 277 271 251 247 252 262 237 228 251 214 262 262 260 264 276
331 332 333 333 333 339 338 342 350 347 353 24 57 4 71 247 155 135 94 31 284 315 19 56 107 69 344 79 292 81 339 73 238 260 245 155 302 32 332 299 310 295 273 266 256 254 292 294 270 277 286 278 204 345 288 105 317 322 327 282 308 163 269 21 53 292 280 279 237 238 37 304 266 273 268 255 245 254 230 193 210 179 222 222 207 245 256
326 330 334 329 330 338 338 344 351 350 6 112 79 38 294 74 295 74 103 213 320 348 328 34 53 39 230 155 237 138 258 238 280 359 282 132 134 120 305 313 316 285 312 284 308 339 307 282 283 277 266 249 247 235 249 250 251 243 210 231 264 172 191 299 19 270 243 274 131 102 286 316 277 257 250 241 237 230 249 261 209 213 166 172 184 238 220
318 330 331 327 329 335 338 343 352 1 15 75 87 279 12 69 335 14 46 65 323 32 53 339 96 202 196 327 337 330 228 327 2 103 275 7 302 16 26 331 309 272 258 269 300 278 275 275 272 265 256 253 253 248 245 247 237 222 213 204 255 186 209 241 153 242 246 337 17 357 357 263 242 232 187 154 193 178 194 240 221 220 164 208 198 234 256
313 327 334 331 331 335 337 339 345 358 31 160 141 123 227 119 82 91 78 73 263 323 315 228 170 294 63 272 162 221 268 306 214 161 217 249 265 307 336 315 114 306 242 299 325 315 300 280 266 269 250 252 254 254 245 244 245 225 214 211 225 213 193 225 166 233 255 258 54 262 243 251 265 305 254 213 245 169 214 250 264 250 250 290 290 276 262
311 324 333 330 327 330 331 334 338 352 353 3 29 107 312 108 105 114 123 113 263 318 9 300 315 262 265 302 310 255 231 252 258 227 221 207 291 326 222 198 215 242 296 323 318 324 322 289 291 270 276 273 268 259 253 243 249 239 216 211 216 221 207 163 229 200 128 125 185 260 228 256 286 283 275 180 117 195 183 306 282 262 226 208 233 249 271
301 311 327 320 318 320 325 332 332 339 330 356 5 339 30 16 42 45 88 78 306 242 265 293 328 298 248 228 221 278 334 300 301 206 263 212 204 246 280 226 229 257 308 296 315 318 328 25 331 358 315 323 340 29 261 235 237 234 217 215 212 223 204 174 245 167 232 179 192 234 334 318 328 327 34 171 280 166 187 236 276 253 226 162 224 301 315
303 304 306 305 311 313 312 321 328 330 263 168 44 326 11 18 65 132 159 95 253 295 155 234 253 211 228 279 188 9 343 303 3 302 290 338 261 221 213 263 273 292 352 74 343 24 244 319 326 336 319 26 19 295 317 355 328 170 236 210 203 198 213 190 205 239 196 237 254 288 282 247 268 245 301 295 247 287 175 74 300 325 325 212 227 267 306
301 307 307 306 307 305 305 308 318 304 200 157 93 260 280 177 95 92 111 139 121 338 275 219 181 141 203 255 204 221 260 318 302 305 332 322 264 314 288 266 286 305 96 91 116 84 58 299 304 313 314 320 239 294 302 319 320 168 97 86 132 191 202 158 193 244 133 219 240 229 217 242 206 230 136 287 282 181 132 18 295 279 284 300 221 208 215
299 307 307 307 309 307 306 305 300 273 199 168 164 158 291 162 128 123 99 52 97 222 245 178 149 100 51 333 5 319 171 221 158 342 323 307 277 276 304 305 307 70 116 87 348 26 344 279 244 251 276 236 299 237 312 12 317 316 324 14 72 97 124 123 193 229 221 229 230 241 217 250 284 253 235 234 116 104 54 325 276 272 316 258 128 325 283
289 295 300 306 309 307 301 307 297 279 220 192 172 146 244 93 138 103 64 111 129 275 262 200 134 101 200 196 215 252 99 28 349 342 218 267 319 335 316 355 345 309 215 67 46 41 331 213 258 260 274 246 183 63 256 271 297 243 302 301 305 45 60 171 221 220 228 223 261 289 285 267 218 252 271 236 163 71 113 198 234 259 251 221 167 213 196
274 274 287 294 295 300 306 303 300 290 248 194 170 24 268 187 146 95 114 98 97 237 270 249 178 178 228 143 173 195 195 214 174 166 296 344 300 236 251 271 213 327 358 104 17 178 224 255 215 230 247 308 33 230 274 356 244 305 355 358 336 302 300 288 24 236 234 231 234 252 258 249 191 288 228 263 96 191 220 232 241 239 271 273 230 260 239
278 285 278 275 277 279 284 293 294 285 258 188 170 200 226 139 185 165 145 171 149 256 280 249 163 252 246 241 282 303 328 336 293 190 171 245 291 346 4 24 316 33 339 350 12 214 259 261 244 285 262 274 279 334 288 252 219 225 278 216 226 226 196 231 205 217 38 93 262 314 300 320 109 168 347 9 113 235 217 257 268 201 246 267 272 223 255
269 276 281 285 289 285 278 279 280 281 265 197 183 194 297 300 145 175 120 123 124 320 305 298 135 239 201 235 225 227 201 231 188 220 236 202 242 75 311 217 233 4 298 114 166 291 311 293 319 265 260 196 289 346 273 337 288 265 213 226 221 206 184 248 252 183 246 182 200 210 210 209 315 70 194 237 199 200 207 175 287 284 250 249 264 277 253
298 296 299 299 299 299 304 300 291 287 260 213 182 125 244 226 154 148 167 129 170 199 226 224 191 242 236 231 229 214 223 241 232 216 262 281 280 186 216 273 245 210 251 176 8 340 327 294 332 291 272 295 125 232 315 310 268 276 40 111 312 113 259 248 281 223 157 245 261 252 222 195 218 157 216 222 252 244 223 226 250 273 283 206 204 265 278
297 296 295 295 298 298 297 298 289 288 283 240 181 199 203 199 14 178 143 182 252 278 263 286 289 272 265 248 240 234 238 236 251 229 196 214 290 295 230 253 268 231 266 174 202 196 245 199 252 224 261 210 223 272 230 210 275 303 291 204 225 231 223 205 220 253 283 267 244 271 290 281 278 246 244 253 273 263 220 237 262 236 230 223 236 255 263
287 291 292 292 294 300 301 296 287 295 287 265 208 175 227 210 202 87 70 92 173 312 299 326 52 301 238 303 320 260 191 229 216 221 195 169 203 289 318 248 231 324 255 230 171 197 216 211 245 268 256 214 170 229 264 266 223 204 226 302 281 278 336 122 244 293 4 282 338 48 229 284 325 306 292 269 256 267 290 296 243 255 261 274 261 245 260
277 281 282 283 287 287 291 296 298 292 282 271 238 233 103 352 198 155 135 146 259 123 241 306 228 246 264 267 255 263 225 197 151 176 180 198 204 209 221 216 198 194 229 217 107 71 58 210 280 257 267 263 175 274 154 250 286 149 253 242 323 310 81 337 248 259 247 261 279 286 290 272 270 265 282 293 297 294 270 235 256 266 279 274 275 280 275
276 279 279 277 277 280 279 281 290 298 287 270 228 187 184 215 174 128 91 79 131 136 243 277 284 293 302 348 306 216 148 142 170 165 185 197 205 216 237 277 297 25 91 106 128 185 189 224 238 242 249 272 187 248 241 204 262 190 225 253 179 256 33 264 149 274 274 288 282 280 298 297 288 293 271 239 245 269 292 292 281 275 278 279 277 250 250
268 271 274 276 274 272 271 276 270 274 280 273 257 207 202 248 177 168 172 182 115 312 178 255 276 304 358 309 276 272 239 232 221 225 225 220 221 226 228 236 241 203 176 149 11 150 186 219 172 229 203 252 215 242 250 281 240 259 252 243 156 205 244 253 285 280 274 256 270 312 319 299 302 291 283 282 266 248 267 286 291 283 275 269 268 276 264
258 262 267 270 268 268 271 267 251 239 251 263 256 234 216 212 213 211 206 184 181 212 230 273 291 280 276 276 292 271 251 217 203 214 220 225 218 219 218 226 222 210 198 168 290 239 211 219 243 232 267 267 245 263 208 267 319 264 251 239 181 209 237 158 201 208 265 267 262 238 231 266 262 270 280 278 275 270 272 274 277 281 276 269 272 278 286
275 279 273 269 270 271 267 262 238 233 242 248 217 237 228 217 215 210 207 195 182 244 255 273 290 340 287 267 292 292 289 253 247 226 237 249 224 206 209 210 207 205 136 132 156 154 183 235 171 174 221 213 172 265 167 244 212 250 248 218 194 226 209 207 228 235 253 265 275 276 232 253 273 272 263 263 265 265 271 274 274 273 275 278 266 252 258
273 270 269 265 268 266 263 259 231 223 205 185 196 46 352 323 223 232 212 200 178 137 127 332 316 259 309 331 301 275 304 299 273 245 226 231 238 222 209 195 218 190 172 178 167 219 212 200 254 267 262 138 236 232 251 253 260 262 253 230 223 232 227 230 235 227 249 257 260 249 245 257 260 263 268 271 269 259 260 267 269 274 277 270 265 267 250
275 271 260 253 246 259 258 255 235 204 172 205 232 78 107 271 292 293 218 190 160 136 187 143 246 322 320 259 263 286 276 280 277 261 242 220 223 218 211 166 232 158 202 203 162 231 115 251 182 256 279 200 208 211 238 236 272 277 297 189 216 225 228 236 236 237 249 262 265 273 286 273 270 288 281 266 262 254 249 255 261 260 262 273 271 259 261
268 268 244 220 250 267 258 246 243 198 188 187 195 174 195 185 207 230 219 175 140 111 110 313 320 317 281 304 284 249 284 280 277 337 312 134 300 173 184 178 209 183 178 186 215 88 229 212 204 220 195 197 186 261 214 239 251 260 283 286 250 232 229 249 256 253 243 245 269 303 286 277 265 246 263 270 278 270 236 252 264 271 274 277 278 273 257
266 262 225 187 204 266 268 274 214 185 204 300 301 284 261 246 232 218 168 133 86 161 141 120 234 271 297 266 309 294 227 358 352 22 306 198 223 95 6 168 124 29 195 109 225 217 209 181 176 254 237 118 202 224 234 245 251 268 281 281 284 284 277 269 259 261 261 252 180 230 261 269 275 270 261 273 276 273 277 276 275 272 270 270 277 276 266
248 224 190 196 201 199 186 157 138 185 187 189 246 261 273 206 159 152 148 124 99 88 68 131 296 273 264 336 355 296 53 346 279 19 298 303 218 95 222 63 158 165 221 185 260 231 300 143 203 227 2 235 192 195 249 261 265 270 276 286 287 288 283 285 277 273 267 258 229 220 241 255 267 280 292 284 280 278 268 263 272 279 276 274 266 259 259
214 180 168 162 177 162 143 140 124 107 148 104 267 253 305 204 169 173 167 150 99 323 46 280 132 297 315 326 218 272 30 52 296 215 203 272 110 184 228 96 271 195 286 92 286 198 207 228 148 134 230 167 200 237 250 266 274 276 285 287 285 289 303 300 286 271 268 266 260 251 245 255 269 275 270 274 277 281 290 284 271 258 269 266 264 269 261
168 158 155 153 123 117 98 95 119 122 245 236 245 306 282 272 177 171 178 346 103 158 158 241 114 229 256 306 321 285 1 304 278 319 225 285 342 27 88 129 238 243 160 186 227 183 208 222 124 252 136 188 232 222 242 250 269 281 281 278 281 281 267 269 280 295 298 297 283 275 273 251 244 261 269 271 274 278 277 280 283 257 247 266 267 265 264
157 147 122 115 113 78 86 211 283 162 236 296 262 134 104 96 66 67 20 340 295 121 181 165 258 229 174 263 321 275 24 314 337 344 328 327 233 282 61 41 240 276 7 276 219 214 251 95 175 245 209 216 249 243 249 265 267 274 281 281 285 288 288 282 269 269 289 297 299 291 257 258 262 259 267 270 269 272 282 272 264 261 257 256 263 265 258
134 127 115 74 54 48 11 323 210 273 329 78 32 13 346 24 66 330 3 20 275 226 268 102 247 234 120 147 259 243 19 279 54 352 304 234 16 291 112 203 236 127 257 223 237 166 105 146 212 221 263 253 263 276 272 263 262 263 264 269 275 282 288 292 302 301 293 305 309 314 329 319 310 289 264 282 286 286 273 266 269 254 247 255 259 261 272
132 140 119 82 99 150 192 253 337 330 32 2 56 75 308 48 50 340 278 285 19 322 266 192 253 146 157 222 262 201 189 256 322 354 269 278 96 300 98 240 292 68 272 262 272 124 238 266 322 353 265 271 304 261 243 248 259 258 262 264 270 280 292 295 292 258 248 239 250 266 252 257 286 301 308 298 290 280 271 273 272 261 248 251 256 254 248
155 139 116 78 137 226 242 284 311 284 69 41 327 103 249 302 95 289 40 42 298 241 89 271 219 200 193 213 248 302 155 144 200 267 223 294 229 205 269 260 257 135 248 220 238 107 138 261 266 62 282 260 245 263 275 261 270 276 278 278 285 288 288 283 286 269 238 249 251 259 264 216 232 259 277 287 287 288 293 285 264 261 252 249 249 252 252
66 84 83 154 227 191 253 291 15 54 71 42 9 29 83 323 211 174 58 271 220 250 198 185 356 360 319 116 177 239 291 63 232 131 148 226 257 91 215 216 164 217 251 237 282 86 114 294 259 205 243 248 255 284 299 299 283 287 291 295 294 287 290 293 288 283 266 270 276 271 257 205 217 241 271 283 277 271 269 278 288 284 279 274 264 254 254
156 128 169 124 160 276 22 23 67 39 351 138 113 274 181 215 15 345 160 158 255 253 296 150 290 213 240 181 200 180 279 195 143 133 181 285 298 207 260 290 329 226 252 244 91 41 103 222 246 275 256 260 272 289 289 291 299 306 307 311 311 310 314 313 308 305 279 262 279 284 295 274 271 300 6 349 338 309 293 295 292 293 288 286 287 286 282
70 95 122 79 48 14 105 94 266 116 134 320 83 313 77 41 223 172 256 284 306 126 264 279 223 200 265 95 313 205 201 210 191 271 107 250 340 54 248 263 229 243 245 345 81 201 197 231 244 254 262 276 287 297 295 283 283 293 288 289 285 283 283 283 274 274 283 268 276 288 296 299 305 318 332 343 352 340 321 290 283 292 302 305 300 292 286
117 89 50 358 77 279 84 322 135 52 4 154 154 188 179 263 298 55 330 266 220 273 251 104 288 62 314 257 155 282 1 322 73 63 264 248 78 259 265 243 230 266 40 265 196 220 223 228 220 255 281 301 302 296 299 307 310 314 313 313 310 305 280 269 293 317 322 316 289 271 268 257 266 287 275 284 49 4 337 326 324 319 309 308 306 298 293
77 8 42 17 65 258 62 291 12 119 205 228 161 198 170 181 234 177 197 242 130 213 290 251 206 279 277 275 8 260 133 221 290 166 256 125 277 217 212 254 269 16 212 244 250 276 341 259 271 277 281 282 281 290 297 298 301 299 297 306 312 318 318 300 289 294 287 294 299 313 312 299 299 288 293 328 8 56 326 307 305 318 323 327 316 313 312
88 162 96 89 334 286 141 224 88 303 277 149 200 187 176 222 169 218 250 161 250 303 332 305 308 290 266 245 179 226 356 95 5 229 175 172 245 247 221 267 116 263 242 207 228 222 217 221 255 272 276 270 280 293 303 297 305 311 322 314 309 309 308 310 282 265 257 268 284 298 287 289 286 295 307 316 304 310 288 270 268 268 274 312 308 305 303
61 20 83 91 143 267 89 180 236 205 177 204 220 193 191 205 201 221 247 163 228 248 273 264 240 216 239 283 305 319 69 93 206 249 88 233 222 273 49 80 249 211 219 233 230 239 254 257 260 276 282 289 298 307 309 311 314 317 315 310 312 309 308 304 286 269 261 260 276 282 282 283 287 283 295 308 303 289 277 280 274 269 263 269 278 284 292
146 226 101 142 228 185 189 247 183 296 255 173 209 197 227 187 13 308 272 214 227 329 315 342 344 349 317 295 135 217 232 178 228 252 180 229 337 267 239 219 232 241 202 190 237 215 228 279 292 294 304 304 292 302 310 312 314 315 315 319 318 316 310 301 299 294 280 261 265 268 275 280 282 278 275 274 284 286 279 270 270 279 287 292 290 289 290
139 139 173 212 206 187 236 264 58 289 275 255 200 181 226 246 254 258 274 295 34 315 236 306 251 137 261 222 187 245 261 169 204 242 98 170 218 238 221 250 236 259 240 207 222 208 265 289 286 297 299 299 299 299 296 296 294 294 298 305 309 307 303 294 284 284 289 275 259 262 272 271 277 281 282 277 274 278 277 269 272 281 281 281 281 288 298
78 337 22 112 355 287 192 130 79 284 290 314 357 293 214 193 240 263 235 331 282 350 334 305 136 169 241 97 277 218 229 184 210 231 205 225 220 245 241 256 236 230 256 237 258 257 238 257 272 287 291 292 290 288 292 293 294 297 296 295 298 304 300 289 289 292 287 278 277 270 269 278 278 271 266 265 269 281 297 296 290 283 280 270 261 274 281
332 134 233 183 177 229 139 202 199 215 289 268 257 253 190 256 243 275 245 69 27 46 43 234 244 229 315 278 216 278 242 181 209 216 204 216 178 204 217 243 236 213 240 210 223 252 269 270 272 271 278 279 281 284 287 286 283 281 282 286 290 294 299 298 285 274 275 272 266 271 273 265 259 258 269 294 300 300 300 296 289 279 273 276 267 262 278
111 195 241 254 244 231 215 178 267 208 233 249 259 245 162 255 227 241 256 62 342 294 262 240 151 244 220 222 232 228 322 8 226 209 227 231 164 197 227 210 246 236 234 248 269 270 267 258 254 261 266 270 275 281 282 284 284 283 283 284 290 297 298 296 288 272 263 267 267 252 260 264 271 281 294 297 291 299 293 285 286 291 292 291 288 287 275